Regional Weather Roundup
Issued by NWS

Home | Current Version | Previous Version | Graphics & Text | Print | Product List | Glossary On
Versions: 1 2 3 4 5 6 7 8 9 10 11 12 13 14 15 16 17 18 19 20 21 22 23 24 25 26 27 28
000
ASUS43 KDMX 242007
RWRIA

WEATHER ROUNDUP FOR IOWA
NATIONAL WEATHER SERVICE DES MOINES IA
300 PM CDT FRI OCT 24 2014

NOTE: "FAIR" INDICATES FEW OR NO CLOUDS BELOW 12,000 FEET WITH NO
SIGNIFICANT WEATHER AND/OR OBSTRUCTIONS TO VISIBILITY.

* - THESE STATIONS ARE NOT NWS STATIONS...THUS NOT UNDER NWS
QUALITY CONTROL.  THEY ALSO DO NOT REPORT WEATHER SUCH
AS PRECIPITATION OR FOG.

IAZ001>003-012>014-020>022-031>034-043>046-242100-
   NORTHWEST IOWA

CITY           SKY/WX    TMP DP  RH WIND       PRES   REMARKS
CARROLL *      SUNNY     73  57  56 W9        29.87F
CHEROKEE *     CLOUDY    70  55  60 W7        29.88S
DENISON *      SUNNY     73  57  56 SW9       29.86F
LE MARS *      SUNNY     73  48  40 NW8       29.88F
ORANGE CITY *  SUNNY     72  46  40 NW6       29.88F
SHELDON *      SUNNY     73  46  38 NW7G13    29.87F
SIOUX CITY     PTSUNNY   76  47  35 VRB5      29.88F
SPENCER        PTSUNNY   72  52  49 W10       29.87F
STORM LAKE *   SUNNY     72  54  53 W10       29.89S
$$

IAZ055>058-069>071-079>083-090>094-242100-
   SOUTHWEST IOWA

CITY           SKY/WX    TMP DP  RH WIND       PRES   REMARKS
ATLANTIC *     SUNNY     72  61  68 SW9       29.90S
AUDUBON *      SUNNY     73  59  60 SW9       29.90F
CLARINDA *     SUNNY     73  63  68 SW14      29.91F
COUNCIL BLFS * SUNNY     73  63  68 VRB7      29.89F
CRESTON *      MOSUNNY   68  63  83 SW10G16   29.91S
HARLAN  *      SUNNY     73  61  64 SW8       29.92F
LAMONI         CLOUDY    66  62  87 S13       29.91F FOG
RED OAK *      SUNNY     72  63  73 SW9       29.91S
SHENANDOAH *   SUNNY     75  63  64 SW13      29.90F
$$

IAZ047>049-059>061-072>074-084-242100-
   CENTRAL IOWA

CITY           SKY/WX    TMP DP  RH WIND       PRES   REMARKS
AMES           CLOUDY    66  61  84 S10       29.88F HAZE
ANKENY *       CLOUDY    64  63  94 S12       29.88F
CHARITON *     CLOUDY    64  61  88 S14       29.91F FOG
DES MOINES     CLOUDY    66  61  84 S10       29.89F HAZE
GRINNELL*      CLOUDY    61  59  94 S10       29.91F FOG
KNOXVILLE *    CLOUDY    63  59  88 SW9       29.91R
MARSHALLTOWN   CLOUDY    61  60  97 S9        29.89F FOG
PELLA *        CLOUDY    63  61  94 SW9       29.93R
PERRY *          N/A     72  61  68 SW12      29.88F
$$

IAZ004>006-015-016-023>025-035-036-242100-
   NORTH CENTRAL IOWA

CITY           SKY/WX    TMP DP  RH WIND       PRES   REMARKS
ALGONA *       SUNNY     70  57  64 W9        29.87S
CLARION *      MOSUNNY   68  61  77 SW10G16   29.87F
ESTHERVILLE    PTSUNNY   70  52  52 W9        29.85F
FORT DODGE *   PTSUNNY   70  57  64 W10       29.87F
MASON CITY     CLOUDY    64  60  87 SW8       29.87F FOG
FOREST CITY *  SUNNY     68  57  68 SW10G16   29.86F
IOWA FALLS *   CLOUDY    63  61  94 S9        29.89F FOG
$$

IAZ007>011-017>019-026>030-037>042-050>054-066-242100-
   NORTHEAST IOWA

CITY           SKY/WX    TMP DP  RH WIND       PRES   REMARKS
CEDAR RAPIDS   CLOUDY    62  58  86 S14       29.91F
CHARLES CITY * CLOUDY    55  55 100 S9        29.89F FOG
CLINTON *      MOSUNNY   66  52  59 S13       29.98F
DECORAH *      CLOUDY    57  55  94 S10       29.88F FOG
DUBUQUE        MOSUNNY   62  55  77 S16       29.92F
MONTICELLO *   MOSUNNY   63  57  82 S16       29.91F
OELWEIN *      FOG       57  57 100 S12       29.91F VSB 1/2
WATERLOO       CLOUDY    58  57  97 S8        29.89F FOG
$$

IAZ064-065-067-068-078-242100-
   EAST CENTRAL IOWA

CITY           SKY/WX    TMP DP  RH WIND       PRES   REMARKS
DAVENPORT      MOSUNNY   69  50  50 S18G24    29.96F
IOWA CITY      PTSUNNY   63  57  81 S14       29.94F
MT. PLEASANT * CLOUDY    63  55  77 S14G20    29.96F
MUSCATINE *    PTSUNNY   68  54  60 S17G23    29.94F
QUAD CITIES    MOSUNNY   68  51  54 SW14G23   29.95F HAZE
$$

IAZ062-063-075>077-085>089-095>099-242100-
   SOUTHEAST IOWA

CITY           SKY/WX    TMP DP  RH WIND       PRES   REMARKS
BURLINGTON     MOSUNNY   65  57  75 S13       29.96F
FAIRFIELD *    CLOUDY    63  57  82 S14G21    29.94F
FORT MADISON * PTSUNNY   63  61  94 S10       29.98F
KEOKUK *       CLOUDY    59  57  94 S6G14     29.98F
OSKALOOSA *    CLOUDY    63  59  88 S13       29.92S
CENTERVILLE *  CLOUDY    64  63  94 S13G18    29.94F
OTTUMWA        CLOUDY    63  58  83 S10G20    29.91F
WASHINGTON *   SUNNY     66  63  88 S15       29.92F
$$

ABBREVIATIONS USED IN REMARKS
   TC - TEMPERATURES IN CELSIUS
  WCI - WIND CHILL INDEX
   HX - HEAT INDEX
  VSB - VISIBILITY
$$




USA.gov is the U.S. government's official web portal to all federal, state and local government web resources and services.